Find Local Weather

World > North America > United States > Connecticut

Darien High School, Connecticut Regional Weather

Lat: 41.08N, Lon: 73.49W
Wx Zone: CTZ009
Feedback
Expires:201804231400;;378504
ASUS41 KOKX 231305
RWROKX

Regional Weather Roundup
National Weather Service New York NY
900 AM EDT MON APR 23 2018

Note: "FAIR" indicates few or no clouds below 12,000 feet with no
significant weather and/or obstructions to visibility.


CTZ002-004>006-009-010-012-RIZ004-006-007-MAZ004-011-015-231400-
Southern New England

 In CT
  
CITY           SKY/WX    TMP DP  RH WIND       PRES   REMARKS
Bradley Intl   FAIR      48  24  39 NE6       30.51R                  
Hartford       FAIR      48  26  42 NW3       30.51S                  
Danbury        FAIR      49  23  36 NE8       30.49S                  
Wtrbury/Oxford FAIR      50  20  30 E8        30.49R                  
Norwalk Harbor   N/A     48 N/A N/A NE12        N/A                   
Bridgeport     FAIR      53  23  31 NE14      30.48F                  
Meriden        FAIR      51  23  33 N7        30.50S                  
New Haven      FAIR      53  24  32 NE5       30.49S                  
Chester        FAIR      54  16  22 NE7       30.49S                  
Groton         FAIR      55  24  30 NE8       30.49S                  
Willimantic    FAIR      47  28  47 E3        30.50F                  

 In RI
  
CITY           SKY/WX    TMP DP  RH WIND       PRES   REMARKS
Providence     FAIR      54  22  28 NE7       30.50S                  
Block Island   FAIR      50  28  42 NE8       30.50R                  
Westerly       FAIR      55  21  26 NE6       30.50R                  
 
In MA
  
CITY           SKY/WX    TMP DP  RH WIND       PRES   REMARKS
Boston         FAIR      52  20  28 N3        30.50R                  
Worcester      FAIR      50  18  28 SE3       30.49R                  
Westfield      FAIR      47  25  42 VRB3      30.51R                  
Provincetown   FAIR      47  37  68 N8        30.50R                  
Nantucket      FAIR      50  36  58 N12       30.48R                  
$$


SKY/WX - Weather  TMP - Temperature  DP - Dewpoint  RH - Relative Humidity
WIND - Wind Direction/Speed PRES - Barometric Pressure